User: anonymous   Login
Location: Unspecified
(10.5000°N, 0.0000°E)
Time: 01:32:44
(UTC+00:00)
Language:

ISS - Orbit

View from above orbital plane
View from above orbital plane
View from above satellite
View from above satellite

Ground track
Ground track

The orbit data is extracted from the following two-line orbital elements,

1 25544U 98067A   19141.56370928  .00016717  00000-0  10270-3 0  9014
2 25544  51.6371 133.4571 0001596  14.1894 345.9302 15.52748083 11110
Epoch (UTC): 21 May 2019 13:31:44
Eccentricity: 0.0001596
inclination: 51.6371°
perigee height: 407 km
apogee height: 410 km
right ascension of ascending node: 133.4571°
argument of perigee: 14.1894°
revolutions per day: 15.52748083
mean anomaly at epoch: 345.9302°
orbit number at epoch: 1111

The dashed part of the orbit path shows where the satellite is in the earth's shadow,  

DLR